�N����,����,�~����,�C��,���x,�C��,����,���ϕ���,�ő�u�ԕ���,�ő厞����,���˗�,�I�_���x,�n�����x,�ő啗���N��,DTYPE
"23/04/08","00:10",0.0,10.2,93.1,1005.5,318.8,1.6,2.7,310.2,0.00,9.2,15.0,"00:06:24",1
"23/04/08","00:20",0.0,10.0,93.5,1006.0,311.7,1.6,2.4,321.9,0.00,9.0,14.8,"00:12:24",1
"23/04/08","00:30",0.0,9.8,93.9,1006.0,301.0,1.8,2.6,311.3,0.00,8.9,14.8,"00:28:08",1
"23/04/08","00:40",0.0,9.8,94.2,1005.5,303.7,1.7,2.4,348.9,0.00,9.0,14.7,"00:35:12",1
"23/04/08","00:50",0.0,9.6,94.6,1005.7,304.3,1.8,2.5,328.4,0.00,8.8,14.7,"00:48:48",1
"23/04/08","01:00",0.0,9.7,95.0,1005.7,332.7,2.1,2.8,326.5,0.00,9.0,14.8,"00:58:40",1
"23/04/08","01:10",0.0,9.6,95.2,1005.2,313.3,2.0,2.7,327.9,0.00,8.9,14.6,"01:06:24",1
"23/04/08","01:20",0.0,9.7,95.6,1005.7,308.8,2.2,2.9,313.9,0.00,9.1,14.7,"01:15:28",1
"23/04/08","01:30",0.0,10.1,95.7,1005.5,314.6,2.6,4.1,328.3,0.00,9.5,14.6,"01:23:28",1
"23/04/08","01:40",0.0,10.2,95.7,1005.7,320.8,2.3,3.1,326.1,0.00,9.6,14.6,"01:32:32",1
"23/04/08","01:50",0.0,9.9,95.9,1005.5,319.8,2.8,4.3,320.6,0.00,9.3,14.5,"01:48:40",1
"23/04/08","02:00",0.0,10.3,95.7,1005.5,330.2,3.9,5.1,314.4,0.00,9.7,14.5,"01:51:28",1
"23/04/08","02:10",0.0,10.2,95.5,1005.2,328.1,3.9,5.7,322.0,0.00,9.6,14.4,"02:08:08",1
"23/04/08","02:20",0.0,10.3,95.4,1005.0,323.0,3.5,5.0,326.2,0.00,9.6,14.2,"02:11:20",1
"23/04/08","02:30",0.0,10.2,95.1,1005.0,320.7,2.5,3.7,328.9,0.00,9.5,14.3,"02:20:08",1
"23/04/08","02:40",0.0,10.0,95.1,1005.0,325.2,2.5,3.4,319.8,0.00,9.3,14.2,"02:33:36",1
"23/04/08","02:50",0.0,9.6,95.1,1004.8,303.9,2.1,3.2,251.2,0.00,8.9,14.2,"02:48:48",1
"23/04/08","03:00",0.0,9.6,95.0,1004.8,299.3,2.2,2.7,323.1,0.00,8.9,14.3,"02:57:20",1
"23/04/08","03:10",0.0,9.4,94.9,1004.5,331.4,2.8,3.6,327.4,0.00,8.7,14.2,"03:08:32",1
"23/04/08","03:20",0.0,8.9,95.0,1004.5,316.5,2.3,3.4,336.7,0.00,8.2,14.2,"03:10:40",1
"23/04/08","03:30",0.0,8.7,95.2,1004.5,312.1,2.2,3.6,326.9,0.00,8.0,14.1,"03:27:04",1
"23/04/08","03:40",0.0,8.6,95.4,1004.3,325.2,2.5,2.9,329.5,0.00,7.9,14.1,"03:39:36",1
"23/04/08","03:50",0.0,8.5,95.6,1004.1,320.0,2.8,4.7,319.1,0.00,7.9,14.1,"03:47:28",1
"23/04/08","04:00",0.0,8.4,95.7,1004.3,295.2,2.5,3.9,313.4,0.00,7.8,14.0,"03:54:32",1
"23/04/08","04:10",0.0,8.3,95.9,1004.5,311.0,3.0,4.0,318.3,0.00,7.7,13.9,"04:04:00",1
"23/04/08","04:20",0.0,8.4,96.1,1004.1,308.3,2.8,3.4,315.5,0.00,7.9,14.2,"04:12:08",1
"23/04/08","04:30",0.0,8.5,96.1,1004.1,316.4,3.4,4.2,326.7,0.00,8.0,13.9,"04:21:36",1
"23/04/08","04:40",0.0,8.9,95.9,1004.1,312.8,3.2,4.4,312.6,0.00,8.3,13.9,"04:34:56",1
"23/04/08","04:50",0.0,9.1,95.5,1004.1,325.1,3.4,5.1,338.3,0.00,8.5,14.1,"04:47:44",1
"23/04/08","05:00",0.0,8.8,95.6,1004.3,328.3,3.2,4.1,313.8,0.00,8.2,13.8,"04:59:20",1
"23/04/08","05:10",0.0,8.7,95.5,1004.5,333.5,3.4,4.2,340.9,0.00,8.1,13.7,"05:07:08",1
"23/04/08","05:20",0.0,8.8,95.3,1004.5,329.6,3.4,4.5,335.2,0.00,8.1,13.6,"05:14:00",1
"23/04/08","05:30",0.0,8.9,95.0,1004.1,329.6,3.7,5.0,335.5,0.00,8.2,13.7,"05:27:44",1
"23/04/08","05:40",0.0,8.7,94.9,1004.5,326.3,2.8,4.1,332.8,0.00,8.0,13.7,"05:30:08",1
"23/04/08","05:50",0.0,8.8,94.8,1004.3,317.8,3.1,5.6,321.0,0.00,8.1,13.5,"05:49:12",1
"23/04/08","06:00",0.0,8.8,94.3,1004.5,305.5,2.8,4.7,321.3,0.00,8.0,13.7,"05:50:48",1
"23/04/08","06:10",0.0,8.4,94.1,1004.5,296.8,1.6,3.2,312.5,0.00,7.5,13.6,"06:02:32",1
"23/04/08","06:20",0.0,7.9,94.2,1004.3,314.4,2.5,4.4,323.3,0.00,7.1,13.4,"06:17:12",1
"23/04/08","06:30",0.0,7.5,94.3,1004.5,305.9,2.2,3.9,318.3,0.00,6.7,13.3,"06:21:20",1
"23/04/08","06:40",0.0,7.5,94.5,1004.8,298.4,1.6,2.4,321.4,0.00,6.7,13.5,"06:39:36",1
"23/04/08","06:50",0.0,7.7,94.6,1004.8,306.8,1.7,2.6,328.7,0.00,6.9,13.3,"06:49:38",1
"23/04/08","07:00",0.0,8.1,94.8,1004.8,324.2,2.3,3.2,308.9,0.02,7.4,13.5,"06:50:08",1
"23/04/08","07:10",0.0,8.4,94.9,1005.2,328.8,1.8,2.8,324.8,0.04,7.7,13.5,"07:08:08",1
"23/04/08","07:20",0.0,8.7,94.9,1005.2,326.5,2.7,4.7,328.2,0.03,8.0,13.4,"07:17:20",1
"23/04/08","07:30",0.0,8.9,94.7,1005.5,316.2,2.8,4.0,322.0,0.02,8.1,13.2,"07:28:40",1
"23/04/08","07:40",0.0,9.1,94.5,1005.2,316.7,3.1,5.2,323.6,0.03,8.3,13.3,"07:36:00",1
"23/04/08","07:50",0.0,9.4,94.4,1005.2,324.2,2.6,5.2,320.0,0.07,8.6,13.3,"07:40:16",1
"23/04/08","08:00",0.0,9.8,93.9,1005.2,297.3,2.0,3.1,317.0,0.07,8.9,13.1,"07:58:40",1
"23/04/08","08:10",0.0,10.2,93.3,1005.5,324.6,3.1,5.0,328.0,0.05,9.2,13.2,"08:06:32",1
"23/04/08","08:20",0.0,10.4,92.5,1005.5,315.9,3.4,4.8,338.0,0.07,9.3,13.2,"08:11:12",1
"23/04/08","08:30",0.0,10.7,91.2,1005.7,305.3,3.1,4.3,306.6,0.06,9.4,13.2,"08:24:56",1
"23/04/08","08:40",0.0,11.0,89.8,1006.0,312.3,3.4,5.1,332.7,0.07,9.4,13.0,"08:37:12",1
"23/04/08","08:50",0.2,11.1,88.2,1006.2,305.1,3.4,5.4,305.7,0.08,9.3,13.1,"08:45:44",1
"23/04/08","09:00",0.0,11.4,86.5,1006.2,301.8,3.5,5.6,347.6,0.10,9.3,13.2,"08:57:44",1
"23/04/08","09:10",0.0,11.5,85.4,1006.4,298.8,3.2,5.6,310.7,0.09,9.2,13.1,"09:06:48",1
"23/04/08","09:20",0.0,11.6,84.2,1006.4,285.9,2.7,4.0,248.5,0.11,9.1,13.2,"09:15:36",1
"23/04/08","09:30",0.0,11.8,83.3,1006.4,292.9,2.3,4.4,314.4,0.12,9.1,13.2,"09:22:56",1
"23/04/08","09:40",0.0,12.1,82.1,1006.9,300.3,3.0,8.3,338.4,0.12,9.2,13.2,"09:37:12",1
"23/04/08","09:50",0.0,12.0,81.5,1007.1,303.2,3.9,6.0,294.6,0.12,9.0,13.1,"09:40:16",1
"23/04/08","10:00",0.0,12.5,81.0,1007.1,286.9,3.0,5.2,324.6,0.22,9.4,13.2,"09:50:16",1
"23/04/08","10:10",0.0,13.2,79.0,1007.1,281.2,2.8,5.4,257.0,0.28,9.7,13.1,"10:08:18",1
"23/04/08","10:20",0.0,13.5,76.5,1007.4,296.5,3.7,6.4,295.4,0.32,9.5,13.2,"10:15:38",1
"23/04/08","10:30",0.0,13.3,73.0,1007.4,298.3,3.9,8.2,298.1,0.24,8.6,13.3,"10:21:04",1
"23/04/08","10:40",0.0,13.5,72.9,1007.4,303.9,3.5,6.2,322.9,0.20,8.8,13.2,"10:35:52",1
"23/04/08","10:50",0.0,12.8,71.8,1007.6,302.2,3.6,9.7,335.3,0.12,7.9,13.5,"10:49:08",1
"23/04/08","11:00",0.0,12.5,72.4,1007.8,331.0,4.4,7.2,323.1,0.13,7.7,13.1,"10:56:30",1
"23/04/08","11:10",0.0,12.7,73.7,1007.6,321.4,4.5,7.2,322.7,0.28,8.2,13.1,"11:02:30",1
"23/04/08","11:20",0.0,13.8,71.6,1007.4,331.6,4.5,7.1,340.5,0.53,8.8,13.3,"11:10:20",1
"23/04/08","11:30",0.0,13.3,70.0,1007.4,324.9,4.6,9.7,352.1,0.30,8.0,13.3,"11:23:04",1
"23/04/08","11:40",0.0,13.1,69.8,1007.8,335.5,6.1,9.7,336.8,0.38,7.8,13.3,"11:34:18",1
"23/04/08","11:50",0.0,13.2,69.7,1007.6,331.3,4.5,7.4,310.0,0.30,7.8,13.4,"11:41:12",1
"23/04/08","12:00",0.0,12.6,70.0,1007.4,334.9,5.0,10.2,329.6,0.23,7.3,13.5,"11:57:08",1
"23/04/08","12:10",0.0,11.9,72.6,1007.8,310.5,4.4,7.5,326.6,0.10,7.2,13.3,"12:03:22",1
"23/04/08","12:20",0.0,11.2,78.0,1007.4,314.2,3.6,6.5,333.1,0.18,7.6,13.2,"12:18:18",1
"23/04/08","12:30",0.0,12.1,77.9,1007.4,323.6,3.9,8.2,329.2,0.52,8.4,13.5,"12:29:38",1
"23/04/08","12:40",0.0,13.4,75.1,1006.7,308.0,3.5,8.3,324.5,0.59,9.1,13.4,"12:38:14",1
"23/04/08","12:50",0.0,14.0,71.9,1006.7,299.5,3.6,7.2,312.2,0.59,9.1,13.3,"12:44:48",1
"23/04/08","13:00",0.0,15.0,68.4,1007.1,304.6,3.5,7.0,314.3,0.63,9.3,13.5,"12:50:40",1
"23/04/08","13:10",0.8,10.8,72.6,1008.3,309.9,6.4,10.1,285.3,0.12,6.1,13.6,"13:07:52",1
"23/04/08","13:20",0.2,9.7,79.4,1007.6,316.5,4.7,7.1,311.4,0.22,6.4,13.4,"13:17:30",1
"23/04/08","13:30",0.0,10.6,80.4,1007.8,323.4,3.6,6.4,328.9,0.50,7.4,13.5,"13:25:26",1
"23/04/08","13:40",0.0,10.9,80.4,1007.6,334.8,4.0,8.5,1.5,0.52,7.7,13.6,"13:32:42",1
"23/04/08","13:50",0.0,11.0,77.6,1007.6,331.4,6.2,12.9,321.6,0.66,7.3,13.4,"13:49:28",1
"23/04/08","14:00",0.0,11.6,76.7,1007.1,329.6,5.9,11.7,346.0,0.62,7.7,13.6,"13:50:48",1
"23/04/08","14:10",0.0,12.0,73.8,1006.9,323.7,6.1,10.8,332.3,0.56,7.5,13.7,"14:06:52",1
"23/04/08","14:20",0.0,12.6,70.1,1007.1,323.6,5.0,8.5,341.3,0.53,7.3,13.6,"14:16:12",1
"23/04/08","14:30",0.0,13.4,69.3,1006.7,320.0,3.9,8.1,321.4,0.51,7.9,13.5,"14:21:38",1
"23/04/08","14:40",0.0,13.5,65.3,1006.9,319.1,4.5,7.8,327.3,0.51,7.2,13.7,"14:31:44",1
"23/04/08","14:50",0.0,13.7,61.4,1006.7,307.4,4.2,9.3,267.5,0.50,6.5,13.6,"14:42:08",1
"23/04/08","15:00",0.0,14.0,56.4,1006.7,282.8,5.2,10.0,319.0,0.49,5.5,13.9,"14:58:26",1
"23/04/08","15:10",0.0,14.2,59.6,1006.9,308.9,4.7,8.7,334.3,0.48,6.5,13.9,"15:00:40",1
"23/04/08","15:20",0.0,14.0,59.6,1006.9,330.4,3.9,8.6,337.5,0.38,6.3,13.7,"15:14:08",1
"23/04/08","15:30",0.0,13.5,55.6,1006.7,335.2,5.5,9.0,344.4,0.43,4.8,13.8,"15:26:32",1
"23/04/08","15:40",0.0,13.5,58.1,1006.7,342.4,5.6,10.4,330.9,0.40,5.5,14.0,"15:31:48",1
"23/04/08","15:50",0.0,12.8,58.0,1006.7,344.1,6.1,12.4,312.7,0.36,4.8,14.0,"15:43:44",1
"23/04/08","16:00",0.0,12.7,56.6,1007.1,339.2,6.2,11.4,305.8,0.34,4.3,13.9,"15:59:12",1
"23/04/08","16:10",0.2,12.3,55.0,1007.1,338.5,7.1,14.0,346.2,0.31,3.6,14.0,"16:09:52",1
"23/04/08","16:20",0.0,12.7,53.9,1006.9,336.6,5.0,10.3,312.7,0.30,3.7,13.9,"16:10:28",1
"23/04/08","16:30",0.0,12.8,54.4,1006.9,334.1,6.1,12.6,329.2,0.28,3.9,14.0,"16:21:50",1
"23/04/08","16:40",0.0,12.8,53.8,1007.1,339.1,5.0,9.4,347.7,0.25,3.7,14.0,"16:30:16",1
"23/04/08","16:50",0.0,13.0,51.3,1007.4,330.4,5.2,9.5,336.2,0.23,3.2,14.0,"16:44:08",1
"23/04/08","17:00",0.0,13.1,50.3,1007.6,328.7,4.6,12.0,337.1,0.20,3.0,14.1,"16:51:58",1
"23/04/08","17:10",0.0,12.8,49.0,1007.1,317.9,4.6,11.4,314.7,0.17,2.4,14.0,"17:01:54",1
"23/04/08","17:20",0.0,12.4,48.5,1007.6,295.6,4.9,8.3,315.9,0.13,1.9,13.9,"17:19:08",1
"23/04/08","17:30",0.0,12.5,49.5,1007.8,300.0,4.1,8.7,324.4,0.13,2.3,13.9,"17:22:06",1
"23/04/08","17:40",0.0,12.2,50.0,1008.1,319.9,5.2,9.3,326.7,0.10,2.1,14.1,"17:32:28",1
"23/04/08","17:50",0.0,12.2,49.1,1007.8,308.6,3.5,7.1,337.3,0.08,1.9,14.0,"17:49:02",1
"23/04/08","18:00",0.0,12.0,49.2,1008.1,300.5,4.2,12.5,311.6,0.06,1.7,14.1,"17:51:08",1
"23/04/08","18:10",0.0,11.8,49.6,1007.6,306.6,3.2,6.4,306.7,0.04,1.7,13.7,"18:06:28",1
"23/04/08","18:20",0.0,11.5,50.5,1007.8,323.3,3.7,8.0,349.2,0.02,1.6,14.0,"18:11:00",1
"23/04/08","18:30",0.0,11.2,50.9,1007.8,316.0,5.2,8.7,345.1,0.01,1.5,13.9,"18:24:14",1
"23/04/08","18:40",0.0,10.9,53.3,1008.1,320.9,3.9,6.3,328.1,0.00,1.8,13.9,"18:32:30",1
"23/04/08","18:50",0.0,10.6,54.6,1008.3,321.2,4.2,6.6,341.3,0.00,1.9,13.9,"18:43:04",1
"23/04/08","19:00",0.0,10.5,55.3,1008.1,329.4,4.0,7.4,339.2,0.00,2.0,13.8,"18:52:26",1
"23/04/08","19:10",0.0,10.2,56.9,1008.6,314.3,2.8,4.9,325.3,0.00,2.1,13.8,"19:04:50",1
"23/04/08","19:20",0.0,10.0,58.0,1008.6,322.6,2.6,4.3,312.5,0.00,2.2,13.8,"19:12:32",1
"23/04/08","19:30",0.0,9.6,62.3,1008.6,327.2,1.8,3.2,323.7,0.00,2.8,13.6,"19:22:48",1
"23/04/08","19:40",0.0,8.9,66.0,1009.0,311.9,2.2,3.3,316.2,0.00,2.9,13.6,"19:34:08",1
"23/04/08","19:50",0.0,8.9,65.5,1009.0,310.8,3.0,6.0,318.8,0.00,2.8,13.7,"19:48:40",1
"23/04/08","20:00",0.0,9.2,63.3,1008.8,310.1,3.2,5.2,340.7,0.00,2.6,13.6,"19:58:40",1
"23/04/08","20:10",0.0,9.6,59.8,1009.0,320.0,4.2,7.3,340.7,0.00,2.2,13.6,"20:01:46",1
"23/04/08","20:20",0.0,9.6,58.3,1009.5,314.7,3.9,6.5,303.9,0.00,1.9,13.4,"20:16:32",1
"23/04/08","20:30",0.0,9.7,56.8,1009.7,312.8,4.5,9.7,332.8,0.00,1.6,13.6,"20:21:12",1
"23/04/08","20:40",0.0,9.7,56.5,1009.7,310.1,4.4,7.9,340.9,0.00,1.5,13.4,"20:37:52",1
"23/04/08","20:50",0.0,9.7,55.7,1010.0,313.1,5.0,8.6,314.6,0.00,1.3,13.3,"20:48:00",1
"23/04/08","21:00",0.0,9.6,56.3,1010.2,309.8,4.1,7.2,308.5,0.00,1.4,13.2,"20:50:02",1
"23/04/08","21:10",0.0,9.5,56.4,1010.4,312.9,4.4,9.3,312.9,0.00,1.3,13.3,"21:00:40",1
"23/04/08","21:20",0.0,9.4,57.0,1010.7,310.6,4.1,7.8,336.4,0.00,1.4,13.2,"21:14:08",1
"23/04/08","21:30",0.0,9.3,57.7,1010.9,311.1,4.0,6.5,333.3,0.00,1.4,13.3,"21:29:44",1
"23/04/08","21:40",0.0,9.3,58.0,1010.9,306.9,3.6,6.0,325.3,0.00,1.5,13.2,"21:30:08",1
"23/04/08","21:50",0.0,9.1,59.7,1010.4,305.3,3.2,4.7,309.3,0.00,1.7,13.1,"21:44:32",1
"23/04/08","22:00",0.0,9.0,60.6,1010.9,305.3,3.5,5.9,334.4,0.00,1.8,13.1,"21:58:48",1
"23/04/08","22:10",0.0,9.2,60.0,1011.4,308.0,3.9,6.3,322.3,0.00,1.9,13.0,"22:03:36",1
"23/04/08","22:20",0.0,9.2,60.5,1011.6,333.7,3.2,6.4,310.6,0.00,2.0,13.1,"22:13:44",1
"23/04/08","22:30",0.0,8.9,63.5,1011.6,335.4,2.6,4.4,333.9,0.00,2.4,13.0,"22:20:02",1
"23/04/08","22:40",0.0,8.5,67.0,1011.2,337.8,2.5,4.9,329.8,0.00,2.8,12.8,"22:31:28",1
"23/04/08","22:50",0.0,8.2,70.0,1011.9,338.3,2.2,3.4,339.3,0.00,3.1,12.9,"22:48:16",1
"23/04/08","23:00",0.0,8.1,72.0,1011.6,338.2,2.6,4.7,338.6,0.00,3.4,12.9,"22:51:36",1
"23/04/08","23:10",0.0,8.0,73.1,1011.4,328.4,3.1,6.4,330.3,0.00,3.5,12.9,"23:02:32",1
"23/04/08","23:20",0.0,7.8,73.7,1011.9,308.9,2.7,4.5,326.1,0.00,3.4,12.7,"23:16:08",1
"23/04/08","23:30",0.0,7.7,74.0,1011.9,308.6,2.2,3.5,323.3,0.00,3.4,12.9,"23:22:24",1
"23/04/08","23:40",0.0,7.6,74.7,1011.6,329.6,1.7,3.2,336.1,0.00,3.4,12.8,"23:35:52",1
"23/04/08","23:50",0.0,7.3,75.5,1011.9,323.9,1.1,2.9,321.7,0.00,3.3,12.8,"23:42:16",1
"23/04/08","24:00",0.0,7.1,77.2,1011.6,326.9,2.2,3.5,330.1,0.00,3.4,12.8,"23:59:04",1
